Bangor, ME

4:52 AM EST on February 11, 2016 (GMT -0500)
Bangor International

Weather History for KBGR - June, 2013

Change the Weather History Date:

Tuesday, June 4, 2013

  Actual Average Record
Temperature  
Mean Temperature 55 °F 60 °F  
Max Temperature 65 °F 71 °F 92 °F (1930)
Min Temperature 45 °F 49 °F 30 °F (1944)
Degree Days  
Heating Degree Days 10 6  
Month to date heating degree days 10 25  
Since 1 June heating degree days 10 25  
Since 1 July heating degree days 7460 7778  
Cooling Degree Days 0 1  
Month to date cooling degree days 22 4  
Year to date cooling degree days 30 10  
Since 1 June cooling degree days 22 4  
Growing Degree Days 6 (Base 50)    
Moisture  
Dew Point 43 °F    
Average Humidity 70    
Maximum Humidity 100    
Minimum Humidity 39    
Precipitation  
Precipitation 0.00 in 0.13 in 1.41 in (2006)
Month to date precipitation 0.06 0.52  
Year to date precipitation 11.35 16.57  
Snow  
Snow 0.00 in 0.00 in 0.00 in (2002)
Month to date snowfall 0.0 0.0  
Since 1 June snowfall 0.0 0.0  
Since 1 July snowfall 74.3 66.1  
Snow Depth 0.00 in    
Sea Level Pressure  
Sea Level Pressure 29.85 in    
Wind  
Wind Speed 7 mph (WNW)    
Max Wind Speed 21 mph    
Max Gust Speed 30 mph    
Visibility 10 miles    
Events      
T = Trace of Precipitation, MM = Missing Value Source: NWS Daily Summary

Daily Weather History Graph

Daily Weather History Graph

Search for Another Location

Airport or City:

Trip Planner

Search our weather history database for the weather conditions in past years. The results will help you decide how hot, cold, wet, or windy it might be!

Date:

Astronomy

Jun. 04, 2013 Rise Set
Actual Time 4:51 AM EDT 8:16 PM EDT
Civil Twilight 4:14 AM EDT 8:53 PM EDT
Nautical Twilight 3:26 AM EDT 9:41 PM EDT
Astronomical Twilight 2:26 AM EDT 10:42 PM EDT
Moon 2:27 AM EDT (6/4) 4:35 PM EDT (6/4)
Length of Visible Light 16h 38m
Length of Day
15h 25m
Waning Crescent, 14% of the Moon is Illuminated
Jun 4
Waning Crescent
Jun 8
New
Jun 16
First Quarter
Jun 23
Full
Jun 30
Last Quarter

Hourly Weather History & Observations

Time (EDT) Temp. Dew Point Humidity Pressure Visibility Wind Dir Wind Speed Gust Speed Precip Events Conditions
12:53 AM 57.0 °F 51.1 °F 81% 29.78 in 10.0 mi NW 5.8 mph - N/A   Mostly Cloudy
1:53 AM 53.1 °F 51.1 °F 93% 29.77 in 10.0 mi NW 3.5 mph - N/A   Scattered Clouds
2:53 AM 50.0 °F 48.9 °F 96% 29.78 in 10.0 mi Calm Calm - N/A   Partly Cloudy
3:53 AM 48.0 °F 48.0 °F 100% 29.77 in 10.0 mi Calm Calm - N/A   Partly Cloudy
4:53 AM 50.0 °F 46.9 °F 89% 29.77 in 10.0 mi West 4.6 mph - N/A   Partly Cloudy
5:53 AM 51.1 °F 46.0 °F 83% 29.78 in 10.0 mi West 5.8 mph - N/A   Partly Cloudy
6:53 AM 54.0 °F 46.9 °F 77% 29.79 in 10.0 mi West 5.8 mph - N/A   Partly Cloudy
7:53 AM 57.9 °F 46.9 °F 67% 29.79 in 10.0 mi Variable 5.8 mph - N/A   Partly Cloudy
8:53 AM 59.0 °F 46.0 °F 62% 29.80 in 10.0 mi NW 11.5 mph 16.1 mph N/A   Partly Cloudy
9:53 AM 60.1 °F 44.1 °F 55% 29.79 in 10.0 mi WNW 13.8 mph 19.6 mph N/A   Mostly Cloudy
10:53 AM 61.0 °F 43.0 °F 52% 29.80 in 10.0 mi WNW 10.4 mph 23.0 mph N/A   Mostly Cloudy
11:53 AM 59.0 °F 42.1 °F 53% 29.81 in 10.0 mi Variable 5.8 mph 17.3 mph N/A   Mostly Cloudy
12:53 PM 60.1 °F 39.9 °F 47% 29.82 in 10.0 mi NW 16.1 mph 23.0 mph N/A   Mostly Cloudy
1:53 PM 63.0 °F 41.0 °F 45% 29.84 in 10.0 mi NW 15.0 mph 21.9 mph N/A   Mostly Cloudy
2:53 PM 62.1 °F 39.0 °F 43% 29.85 in 10.0 mi WNW 16.1 mph 24.2 mph N/A   Scattered Clouds
3:53 PM 63.0 °F 39.0 °F 41% 29.86 in 10.0 mi NW 13.8 mph 26.5 mph N/A   Mostly Cloudy
4:53 PM 63.0 °F 37.9 °F 40% 29.85 in 10.0 mi NW 12.7 mph 21.9 mph N/A   Scattered Clouds
5:53 PM 63.0 °F 39.0 °F 41% 29.87 in 10.0 mi NNW 12.7 mph - N/A   Scattered Clouds
6:53 PM 62.1 °F 39.0 °F 43% 29.91 in 10.0 mi NNW 13.8 mph - N/A   Partly Cloudy
7:53 PM 59.0 °F 37.9 °F 46% 29.93 in 10.0 mi NW 5.8 mph - N/A   Partly Cloudy
8:53 PM 57.0 °F 37.9 °F 49% 29.96 in 10.0 mi WNW 6.9 mph - N/A   Partly Cloudy
9:53 PM 54.0 °F 39.0 °F 57% 29.98 in 10.0 mi West 4.6 mph - N/A   Partly Cloudy
10:53 PM 53.1 °F 39.0 °F 59% 29.99 in 10.0 mi West 6.9 mph - N/A   Partly Cloudy
11:53 PM 52.0 °F 39.9 °F 63% 30.01 in 10.0 mi WSW 5.8 mph - N/A   Scattered Clouds